Starlink 31388

operational
NORAD ID: 59565 Int'l Des: 2024-076 Owner: SPXS Country: US Constellation: starlink
LEOCIRCULAR

关于 Starlink 31388

正在加载描述...

实时位置

正在加载3D地球...

即将过境

高度历史

Altitude vs Time

uPlot chart will show altitude changes over time

两行轨道根数

1 59565U 24076B 25260.04600790 -.00000786 00000-0 -19068-4 0 9991
2 59565 42.9999 269.8811 0000845 275.4490 84.6265 15.27571100 79946
Epoch: Sep 17, 2025 • Age: 24 hours

当前状态

高度 482.5 km
速度 7.63 km/s
星下点 18.34°N, 83.62°W
发射日期 Apr 23, 2024
运行时间 1.4 years
类型 internet

技术详情

分类 Payload
质量 730.00 kg
干质量 700.00 kg
总质量 730.00 kg
长度 0.30 m
直径 4.10 m
跨度 29.00 m
形状 Box + pan
制造商 SPXS
平台类型 Starlink V2M
阶段状态 In Orbit
所有者/国家 SPXS/US

大型星座

Loading constellations...